Flag for Taiwan Weather past 2 weeks in Kaohsiung, Taiwan

Now
82 °F

Sprinkles. Partly cloudy.


Feels Like: 91 °F
Forecast: 78 / 87 °F
Wind: 7 mph from East

Location: Chiang Kai Shek

Current Time: Jul 23, 2014 at 8:25:50 PM

Latest Report: Jul 23, 2014 at 7:30 PM


Visibility: 5 mi

Pressure: 29.39 "Hg

Humidity: 84%

Dew point: 77 °F

Location of KaohsiungLocation

Historic Weather in Kaohsiung — Graph

°F

Kaohsiung temperature yesterday

Maximum temperature yesterday: 93 °F (at 10:00 AM)
Minimum temperature yesterday: 81 °F (at 5:53 PM)
Average temperature yesterday: 86 °F

Past Weeks' High & Low Weather Summary

 TemperatureHumidityPressure
High99 °F (Jul 20, 11:30 AM)94% (Jul 23, 12:00 PM)29.86 "Hg (Jul 23, 12:00 PM)
Low79 °F (Jul 23, 12:00 PM)33% (Jul 21, 12:00 PM)29.15 "Hg (Jul 23, 8:00 AM)
Average88 °F67%29.71 "Hg
* Reported Jul 8 7:00 PM — Jul 23 7:00 PM, Kaohsiung, Weather by CustomWeather, © 2014

Note: Actual official high and low records may vary slightly from our data, if they occured in-between our weather recording intervals... More about our weather records

Advertising

Kaohsiung weather history for previous 24 hours

 ConditionsComfort  
Time TempWeatherWind HumidityBarometerVisibility
7:00 PM
Jul 23
82 °FSprinkles. Partly cloudy.7 mph84%29.39 "Hg5 mi
6:48 PM81 °FSprinkles. Partly cloudy.8 mph89%29.39 "Hg5 mi
6:30 PM81 °FSprinkles. Broken clouds.5 mph89%29.39 "Hg5 mi
5:30 PM81 °FSprinkles. Broken clouds.5 mph89%29.39 "Hg4 mi
5:00 PM81 °FSprinkles. Broken clouds.7 mph89%29.36 "Hg4 mi
4:30 PM81 °FSprinkles. Broken clouds.7 mph89%29.39 "Hg4 mi
3:51 PM81 °FBroken clouds.14 mph89%29.33 "Hg4 mi
1:30 PM79 °FSprinkles. Broken clouds.7 mph94%29.33 "Hg5 mi
1:00 PM81 °FSprinkles. Broken clouds.2 mph84%29.33 "Hg5 mi
12:30 PM79 °FSprinkles. Broken clouds.7 mph89%29.33 "Hg5 mi
12:00 PM79 °FRain showers. Broken clouds.8 mph94%29.30 "Hg3 mi
11:30 AM81 °FSprinkles. Broken clouds.14 mph89%29.30 "HgN/A
11:00 AM82 °FSprinkles. Broken clouds.18 mph84%29.24 "HgN/A
10:30 AM84 °FSprinkles. Broken clouds.29 mph74%29.18 "HgN/A
10:00 AM84 °FSprinkles. Broken clouds.30 mph74%29.18 "HgN/A
9:30 AM82 °FRain showers. Broken clouds.21 mph84%29.18 "Hg5 mi
9:00 AM84 °FSprinkles. Partly sunny.28 mph74%29.18 "Hg5 mi
8:30 AM84 °FSprinkles. Partly sunny.38 mph74%29.18 "Hg5 mi
8:00 AM82 °FSprinkles. Partly sunny.36 mph79%29.15 "Hg5 mi
7:00 AM84 °FSprinkles. Partly sunny.26 mph74%29.18 "Hg5 mi
12:52 AM81 °FSprinkles. Partly cloudy.32 mph79%29.30 "Hg4 mi
12:00 AM81 °FPartly cloudy.23 mph84%29.36 "HgN/A
11:30 PM
Jul 22
84 °FSprinkles. Partly cloudy.31 mph74%29.39 "Hg4 mi
11:00 PM84 °FPartly cloudy.33 mph74%29.39 "HgN/A
10:30 PM82 °FPartly cloudy.29 mph79%29.39 "HgN/A
10:00 PM82 °FPartly cloudy.29 mph84%29.42 "HgN/A
9:30 PM86 °FThundershowers. Partly cloudy.31 mph70%29.42 "HgN/A
9:03 PM86 °FThundershowers. Partly cloudy.31 mph70%29.45 "HgN/A
8:30 PM84 °FThundershowers. Partly cloudy.24 mph74%29.45 "HgN/A
8:00 PM84 °FPartly cloudy.23 mph79%29.45 "HgN/A
Weather by CustomWeather, © 2014

See weather overviewHow to use our weather pages